Wind_Speed
42 43 45 47 49 51 52 51 50 50 48 47 47 46 45 44 43 41 40 39 38 38 37 37 37 36 36 35 35 33 32 31 30 29 28 27 26 26 25 24 23 22 22
43 44 45 47 49 51 53 52 51 50 49 48 47 46 46 46 44 43 42 41 39 39 38 38 38 38 38 36 36 35 34 33 32 30 29 29 28 27 26 25 25 24 23
42 43 44 46 48 51 51 52 51 50 50 49 48 47 46 46 46 45 44 42 41 40 39 40 39 39 38 37 37 36 35 34 33 32 31 30 30 29 28 27 27 26 25
42 43 44 46 48 50 51 51 51 50 50 50 49 47 46 46 46 46 45 43 42 40 40 41 40 41 40 39 38 37 36 35 34 33 33 32 31 31 30 29 28 28 27
40 42 44 45 47 49 50 51 51 51 50 50 49 48 47 46 47 47 47 45 44 42 41 41 40 40 41 40 39 38 37 36 35 34 34 34 33 32 31 30 29 29 29
37 40 42 43 46 48 50 51 51 51 51 50 50 49 47 47 48 47 47 47 46 44 43 43 41 41 42 40 40 39 38 37 37 36 36 35 35 33 33 32 31 31 31
35 36 38 40 44 46 49 52 53 52 51 51 51 50 49 48 48 48 47 47 47 47 46 45 44 43 43 43 42 41 40 38 38 38 37 37 36 35 35 35 34 34 34
34 34 36 39 40 42 46 50 52 52 52 52 52 51 50 50 49 49 49 48 48 47 46 46 46 45 45 45 44 43 43 42 41 40 39 39 38 37 37 37 36 36 36
32 34 36 37 39 40 43 46 49 50 51 52 53 53 51 50 50 51 50 49 49 48 48 48 47 47 47 46 44 44 43 44 43 42 41 41 40 39 39 39 38 38 37
33 33 35 36 38 40 41 43 46 49 50 51 52 53 52 51 51 52 52 51 50 50 49 49 49 48 48 48 46 43 43 44 44 43 43 43 42 42 41 41 41 40 40
31 32 34 35 37 38 40 42 44 46 48 49 50 51 52 52 52 52 52 52 52 52 51 49 49 50 50 49 47 46 45 45 45 46 45 44 43 44 44 44 43 43 42
30 31 32 34 35 37 39 41 42 44 46 47 49 50 51 52 52 52 52 52 53 53 53 51 51 52 51 48 47 47 47 47 46 46 45 45 45 45 45 45 45 45 45
30 31 32 34 35 37 38 39 40 42 44 45 46 47 49 51 52 52 53 53 53 52 53 53 53 54 53 50 49 48 48 48 48 47 46 45 46 47 46 47 47 47 47
30 31 32 33 34 36 38 38 38 40 42 43 45 45 46 48 51 52 53 53 53 53 52 53 52 54 53 53 52 51 51 51 50 50 49 48 47 47 48 49 49 49 48
31 31 32 33 34 35 38 39 39 40 41 42 45 46 45 45 47 50 51 53 55 55 53 53 54 54 54 54 53 53 52 52 52 52 52 51 51 50 50 50 50 51 50
30 31 32 33 34 36 38 38 39 40 41 41 42 44 46 46 46 46 48 51 53 54 54 54 55 56 55 54 54 54 53 52 52 52 52 52 53 52 51 51 51 51 51
29 29 31 32 34 36 37 38 38 39 40 40 41 42 45 46 46 45 47 49 51 52 53 54 54 55 54 53 54 55 54 53 53 53 52 52 53 53 52 52 51 51 52
28 29 29 31 33 35 36 37 38 38 39 40 40 41 43 44 44 45 45 46 48 50 53 55 55 54 53 52 53 53 53 53 53 53 53 53 53 53 53 53 52 52 52
29 29 29 30 32 34 36 36 37 39 39 39 39 40 42 42 42 42 43 45 46 48 51 53 54 53 53 53 52 52 53 53 54 54 54 54 53 52 53 53 53 54 53
26 27 28 29 30 32 34 36 37 37 38 38 37 38 40 42 41 41 42 43 44 46 48 52 53 52 52 53 52 53 53 54 55 55 55 54 52 52 52 53 53 54 53
25 25 26 27 28 30 32 34 34 35 36 36 37 38 39 40 41 41 41 42 42 44 47 49 50 52 52 53 53 53 53 53 53 54 54 54 53 53 53 53 53 53 53
25 26 26 26 26 28 30 31 33 33 35 36 36 37 38 39 41 40 40 40 41 42 44 46 47 49 49 50 51 52 52 52 53 53 53 53 54 54 53 53 54 54 53
26 26 26 27 27 29 30 31 31 32 34 35 35 36 37 38 39 40 40 40 40 41 42 43 44 47 48 48 49 49 50 50 50 51 52 53 54 54 53 53 53 53 53
27 27 27 27 27 28 29 30 31 32 32 33 34 35 36 36 37 38 38 39 40 40 41 42 43 44 46 46 47 48 49 49 49 50 50 50 50 51 50 51 51 52 52
28 28 28 28 28 28 28 29 30 31 31 32 33 34 35 35 36 37 38 38 38 38 39 40 41 42 43 44 46 47 47 47 47 47 48 48 48 49 49 49 49 50 51
27 27 27 28 27 27 28 28 30 30 31 32 33 34 35 36 36 36 36 36 37 37 37 37 38 40 40 41 42 43 45 45 45 46 46 47 48 48 48 48 49 49 50
Wind_Direction
248 247 244 241 237 235 234 233 234 234 235 235 235 234 234 235 235 235 235 237 237 236 236 236 237 239 239 238 238 238 239 241 242 244 245 245 246 248 248 250 253 255 256
249 248 245 242 237 234 232 231 232 234 235 234 235 235 235 234 234 235 235 236 237 237 236 236 236 238 238 238 238 237 239 240 241 243 244 246 247 248 249 250 253 255 257
250 247 244 242 237 233 231 230 230 232 233 234 234 235 235 235 234 234 235 236 236 236 236 236 236 236 236 237 237 236 238 239 242 243 245 247 247 249 249 250 252 254 256
252 247 244 241 237 233 231 230 229 230 232 234 235 235 235 235 235 234 235 236 237 236 237 237 236 236 235 235 235 235 236 239 242 243 245 246 248 249 250 250 252 254 255
252 249 245 241 237 233 231 230 230 231 231 232 234 235 235 235 235 234 235 235 237 236 236 236 235 235 233 234 234 236 238 239 242 244 245 246 248 249 250 251 253 254 256
254 249 246 241 237 234 232 231 230 231 232 232 233 234 235 235 235 235 235 235 237 236 236 236 236 235 233 234 235 236 238 239 241 243 245 247 248 249 249 250 252 255 257
253 248 244 239 235 234 233 232 232 231 231 231 232 234 235 235 235 235 235 236 236 237 238 237 237 237 235 235 237 238 238 239 240 243 244 246 248 249 249 250 252 254 256
253 248 244 239 237 235 234 233 233 232 232 232 233 234 235 235 235 235 236 236 235 236 237 237 237 238 237 236 237 239 240 241 242 243 245 246 247 249 250 251 253 255 256
252 247 244 241 238 236 236 235 235 233 232 233 233 233 235 235 234 235 235 235 235 235 237 237 237 237 237 236 236 240 241 242 243 244 246 246 247 249 250 252 253 254 256
251 245 242 243 240 239 238 236 236 235 233 233 234 234 235 235 236 235 235 236 236 237 238 238 238 237 237 236 238 239 241 243 244 246 248 249 250 251 252 253 254 255 256
251 247 245 244 243 240 238 238 238 236 234 235 235 235 235 235 236 235 236 236 236 237 238 238 239 238 238 238 240 242 242 243 244 246 247 248 250 252 253 254 255 256 257
253 249 246 244 242 240 238 239 239 237 235 236 236 236 236 236 236 236 237 237 237 237 237 239 240 238 238 240 241 243 244 244 246 247 248 249 250 251 252 254 256 257 259
256 250 247 245 244 241 240 238 238 237 236 236 237 236 236 236 236 237 238 238 238 237 238 239 240 239 238 240 242 243 244 245 246 247 248 250 250 251 253 255 257 259 260
256 251 248 245 244 242 240 237 237 237 237 238 238 238 238 237 237 238 239 239 238 238 239 239 240 239 239 242 243 244 245 247 248 249 250 251 252 253 255 257 258 260 261
258 254 250 249 247 244 240 239 238 237 237 237 238 239 239 238 239 240 240 239 239 238 239 240 240 241 242 243 245 245 246 248 249 250 251 252 254 255 256 258 259 260 261
257 255 253 251 249 246 244 240 239 238 238 239 239 238 238 237 239 240 240 240 238 238 238 239 241 242 242 244 246 246 247 249 250 250 252 253 254 255 256 257 259 261 262
258 256 254 252 249 248 245 242 240 240 240 240 240 239 238 238 239 241 241 240 239 239 240 240 240 240 242 244 246 247 247 249 250 250 251 253 254 255 256 257 259 261 262
258 256 255 253 250 249 246 243 242 241 241 241 241 241 241 240 241 241 241 240 239 239 240 238 239 240 242 244 245 246 247 249 250 250 252 253 253 255 256 258 258 259 261
262 259 257 255 251 249 247 245 246 244 244 244 243 242 241 241 241 241 242 242 243 242 240 240 240 242 244 245 245 247 249 250 251 251 252 253 254 256 257 258 259 260 261
266 261 259 255 252 250 248 248 247 246 246 244 244 244 242 242 241 241 242 243 244 243 243 243 243 244 246 247 248 249 250 252 252 251 253 254 255 256 257 258 259 260 262
266 261 256 252 252 252 251 248 246 245 246 245 245 246 245 243 242 242 243 244 245 246 245 246 246 246 246 247 248 249 251 252 252 253 254 254 254 255 257 258 260 260 262
265 260 255 253 253 253 252 249 247 246 246 246 246 247 247 246 243 242 244 245 246 247 247 247 247 247 247 247 248 250 252 252 253 253 254 254 254 255 258 259 259 260 262
263 259 256 254 255 254 252 251 250 249 248 248 247 247 247 246 245 243 244 245 246 248 248 250 250 248 249 249 250 250 252 252 253 253 253 254 255 256 258 259 260 261 261
261 260 258 257 256 255 255 254 252 251 250 250 249 248 247 246 245 244 244 245 246 248 250 251 251 250 250 250 251 252 253 253 253 253 253 254 256 257 258 259 259 260 262
259 259 257 256 256 256 256 254 253 252 251 250 249 249 248 247 246 247 246 247 247 249 252 253 251 251 251 251 252 253 254 254 254 253 253 254 255 256 258 258 259 260 262
258 257 257 256 256 256 255 254 253 252 251 250 250 250 249 247 248 248 248 248 249 250 252 252 252 251 252 252 252 253 254 255 254 255 255 256 257 258 259 259 260 262 264
Height
5667 5669 5672 5676 5681 5686 5693 5699 5705 5711 5717 5722 5727 5732 5737 5742 5746 5751 5755 5759 5763 5767 5772 5776 5780 5783 5787 5791 5794 5797 5801 5804 5807 5810 5812 5814 5817 5819 5821 5823 5824 5826 5827
5654 5656 5659 5663 5668 5674 5680 5687 5694 5700 5706 5712 5717 5722 5727 5732 5736 5741 5746 5750 5754 5758 5762 5767 5771 5775 5778 5782 5786 5790 5793 5797 5800 5803 5805 5808 5811 5812 5815 5817 5818 5820 5821
5642 5644 5647 5651 5656 5662 5668 5675 5682 5689 5695 5701 5706 5712 5717 5721 5726 5731 5736 5740 5744 5749 5753 5757 5761 5765 5769 5774 5777 5781 5786 5789 5792 5796 5799 5801 5804 5806 5808 5810 5812 5814 5815
5630 5633 5636 5640 5645 5651 5657 5664 5671 5678 5684 5690 5696 5701 5707 5712 5717 5722 5726 5731 5735 5739 5744 5748 5752 5756 5760 5764 5769 5773 5777 5781 5784 5788 5791 5794 5797 5799 5802 5804 5806 5807 5809
5620 5622 5625 5629 5634 5640 5646 5653 5660 5667 5673 5679 5685 5691 5696 5702 5707 5712 5716 5721 5726 5730 5734 5738 5742 5746 5751 5755 5759 5764 5768 5772 5776 5780 5783 5786 5789 5792 5795 5797 5799 5801 5802
5609 5611 5614 5617 5623 5629 5635 5642 5649 5656 5662 5668 5674 5680 5686 5691 5696 5701 5706 5711 5716 5721 5725 5729 5733 5737 5741 5745 5750 5755 5759 5763 5767 5771 5774 5778 5781 5784 5787 5789 5792 5793 5795
5600 5601 5603 5608 5613 5619 5625 5631 5638 5645 5651 5657 5663 5669 5674 5680 5685 5691 5696 5701 5706 5711 5715 5719 5724 5728 5732 5737 5742 5746 5750 5754 5758 5762 5766 5769 5773 5776 5779 5781 5783 5785 5787
5591 5593 5596 5599 5603 5609 5614 5620 5627 5633 5640 5646 5652 5658 5662 5668 5674 5680 5685 5690 5695 5700 5705 5709 5714 5718 5723 5727 5732 5737 5741 5744 5749 5753 5756 5760 5763 5767 5770 5772 5775 5777 5778
5584 5586 5588 5592 5596 5600 5605 5611 5616 5622 5628 5635 5640 5646 5651 5656 5662 5668 5673 5679 5684 5689 5694 5699 5703 5708 5713 5717 5722 5727 5731 5735 5739 5743 5746 5750 5754 5757 5760 5762 5765 5767 5769
5576 5578 5581 5584 5588 5592 5597 5601 5606 5612 5617 5623 5628 5634 5640 5645 5651 5656 5662 5667 5672 5677 5683 5688 5693 5698 5702 5707 5712 5716 5721 5725 5729 5733 5737 5740 5744 5747 5749 5752 5755 5757 5759
5569 5571 5574 5576 5580 5584 5588 5592 5596 5601 5607 5612 5617 5622 5628 5634 5639 5645 5650 5656 5661 5666 5672 5677 5682 5687 5692 5697 5702 5706 5711 5715 5719 5723 5726 5730 5733 5736 5738 5741 5744 5746 5748
5561 5563 5566 5568 5571 5575 5579 5583 5587 5591 5596 5602 5606 5612 5617 5622 5628 5634 5639 5644 5649 5655 5660 5666 5671 5676 5681 5686 5691 5695 5700 5705 5709 5712 5716 5719 5722 5725 5727 5730 5732 5735 5737
5554 5555 5558 5560 5563 5566 5570 5574 5578 5582 5587 5591 5596 5601 5606 5611 5616 5622 5628 5633 5638 5643 5649 5654 5659 5664 5670 5675 5680 5684 5689 5693 5698 5701 5705 5708 5711 5713 5716 5718 5721 5723 5725
5547 5548 5550 5552 5555 5558 5561 5565 5568 5572 5577 5582 5587 5591 5596 5601 5606 5611 5616 5621 5626 5631 5637 5643 5648 5653 5658 5663 5668 5673 5677 5682 5686 5690 5693 5696 5699 5702 5704 5707 5709 5711 5713
5540 5541 5543 5545 5547 5550 5553 5556 5560 5564 5568 5573 5577 5581 5586 5590 5595 5599 5603 5609 5614 5619 5625 5631 5636 5641 5646 5652 5656 5661 5665 5670 5674 5677 5681 5684 5687 5690 5692 5694 5696 5698 5700
5533 5534 5536 5538 5540 5542 5545 5548 5552 5556 5560 5564 5568 5571 5575 5580 5585 5588 5592 5597 5602 5607 5613 5619 5624 5629 5635 5639 5644 5648 5653 5656 5660 5665 5668 5671 5674 5677 5679 5681 5684 5686 5687
5526 5527 5529 5530 5532 5534 5537 5540 5544 5548 5552 5555 5558 5562 5565 5570 5574 5578 5581 5586 5590 5595 5601 5606 5612 5617 5622 5627 5631 5635 5639 5643 5647 5651 5654 5658 5661 5663 5666 5668 5670 5672 5673
5519 5520 5522 5523 5525 5527 5530 5533 5536 5540 5543 5546 5550 5553 5556 5560 5564 5567 5571 5574 5578 5583 5588 5594 5599 5605 5610 5614 5618 5622 5626 5630 5634 5637 5641 5644 5647 5650 5652 5654 5656 5658 5660
5512 5513 5515 5516 5517 5519 5522 5525 5528 5531 5535 5538 5541 5544 5547 5550 5554 5557 5560 5564 5568 5572 5576 5582 5587 5592 5597 5601 5605 5609 5612 5616 5620 5624 5627 5630 5633 5637 5638 5640 5643 5645 5647
5505 5506 5507 5509 5511 5513 5515 5517 5520 5523 5526 5529 5532 5534 5537 5540 5543 5547 5550 5553 5557 5561 5565 5570 5575 5579 5584 5588 5592 5595 5599 5603 5607 5610 5613 5617 5619 5622 5623 5626 5628 5631 5633
5499 5500 5501 5502 5504 5506 5508 5509 5512 5515 5518 5520 5523 5525 5527 5530 5533 5537 5540 5544 5547 5551 5555 5559 5563 5567 5571 5575 5579 5582 5585 5589 5592 5595 5599 5602 5605 5607 5609 5612 5614 5616 5618
5493 5493 5494 5495 5497 5498 5500 5502 5504 5507 5509 5511 5514 5516 5518 5521 5524 5527 5530 5534 5537 5540 5544 5547 5550 5554 5557 5561 5565 5568 5571 5574 5578 5581 5585 5588 5591 5593 5595 5597 5599 5602 5603
5486 5486 5487 5489 5490 5491 5493 5495 5496 5498 5500 5503 5505 5507 5509 5512 5514 5518 5521 5524 5527 5530 5533 5536 5539 5542 5545 5549 5552 5555 5557 5560 5563 5567 5570 5574 5576 5579 5581 5583 5585 5587 5588
5479 5480 5481 5482 5483 5484 5485 5487 5488 5490 5492 5494 5497 5499 5501 5503 5506 5509 5511 5514 5518 5520 5523 5525 5528 5531 5534 5537 5539 5542 5545 5547 5550 5553 5557 5560 5562 5565 5567 5569 5571 5572 5574
5471 5472 5473 5474 5476 5477 5478 5479 5480 5482 5484 5486 5488 5490 5492 5495 5497 5500 5502 5505 5508 5510 5512 5514 5517 5520 5523 5525 5528 5530 5533 5536 5539 5541 5544 5547 5549 5551 5553 5555 5557 5558 5560
5463 5464 5465 5466 5468 5469 5470 5471 5472 5474 5476 5478 5480 5481 5483 5486 5488 5491 5493 5495 5498 5500 5502 5505 5507 5510 5513 5515 5517 5520 5522 5525 5527 5530 5532 5534 5536 5538 5540 5542 5543 5544 5545